Time,TemperatureF,DewpointF,PressureIn,WindDirection,WindDirectionDegrees,WindSpeedMPH,WindSpeedGustMPH,Humidity,HourlyPrecipIn,Conditions,Clouds,dailyrainin,SoftwareType,DateUTC
2013-10-06 00:04:00,65.7,65.1,29.81,SSE,157,0.0,-999.0,98,-99.99,,,0.00,Acu-Link.com,2013-10-06 04:04:00,
2013-10-06 00:19:00,65.5,64.9,29.81,SSW,202,0.0,-999.0,98,-99.99,,,0.00,Acu-Link.com,2013-10-06 04:19:00,
2013-10-06 00:35:00,65.1,64.5,29.81,SW,225,0.0,-999.0,98,-99.99,,,0.00,Acu-Link.com,2013-10-06 04:35:00,
2013-10-06 00:50:00,64.9,64.3,29.80,WSW,247,0.0,-999.0,98,-99.99,,,0.00,Acu-Link.com,2013-10-06 04:50:00,
2013-10-06 01:05:00,64.6,64.0,29.80,South,180,0.0,-999.0,98,-99.99,,,0.00,Acu-Link.com,2013-10-06 05:05:00,
2013-10-06 01:20:00,64.2,63.6,29.81,SW,225,0.0,-999.0,98,-99.99,,,0.00,Acu-Link.com,2013-10-06 05:20:00,
2013-10-06 01:36:00,64.2,63.6,29.80,SW,225,0.0,-999.0,98,-99.99,,,0.00,Acu-Link.com,2013-10-06 05:36:00,
2013-10-06 01:51:00,63.7,63.1,29.81,West,270,0.0,-999.0,98,-99.99,,,0.00,Acu-Link.com,2013-10-06 05:51:00,
2013-10-06 02:09:00,63.7,63.1,29.80,WSW,247,0.0,-999.0,98,-99.99,,,0.00,Acu-Link.com,2013-10-06 06:09:00,
2013-10-06 02:24:00,63.7,63.1,29.80,South,180,0.0,-999.0,98,-99.99,,,0.00,Acu-Link.com,2013-10-06 06:24:00,
2013-10-06 02:41:00,63.7,63.1,29.80,SSW,202,0.0,-999.0,98,-99.99,,,0.00,Acu-Link.com,2013-10-06 06:41:00,
2013-10-06 02:56:00,63.5,62.9,29.79,SW,225,0.0,-999.0,98,-99.99,,,0.00,Acu-Link.com,2013-10-06 06:56:00,
2013-10-06 03:12:00,63.3,62.7,29.79,SW,225,0.0,-999.0,98,-99.99,,,0.00,Acu-Link.com,2013-10-06 07:12:00,
2013-10-06 03:27:00,63.1,62.5,29.79,SSW,202,0.0,-999.0,98,-99.99,,,0.00,Acu-Link.com,2013-10-06 07:27:00,
2013-10-06 03:42:00,62.6,62.0,29.79,SW,225,0.0,-999.0,98,-99.99,,,0.00,Acu-Link.com,2013-10-06 07:42:00,
2013-10-06 03:58:00,62.4,61.8,29.78,SW,225,0.0,-999.0,98,-99.99,,,0.00,Acu-Link.com,2013-10-06 07:58:00,
2013-10-06 04:13:00,62.2,61.6,29.78,SW,225,0.0,-999.0,98,-99.99,,,0.00,Acu-Link.com,2013-10-06 08:13:00,
2013-10-06 04:29:00,61.9,61.3,29.78,South,180,0.0,-999.0,98,-99.99,,,0.00,Acu-Link.com,2013-10-06 08:29:00,
2013-10-06 04:44:00,61.9,61.3,29.78,SSW,202,0.0,-999.0,98,-99.99,,,0.00,Acu-Link.com,2013-10-06 08:44:00,
2013-10-06 05:00:00,62.1,61.5,29.78,South,180,0.0,-999.0,98,-99.99,,,0.00,Acu-Link.com,2013-10-06 09:00:00,
2013-10-06 05:15:00,61.9,61.3,29.78,South,180,0.0,-999.0,98,-99.99,,,0.00,Acu-Link.com,2013-10-06 09:15:00,
2013-10-06 05:30:00,61.5,60.9,29.78,SSW,202,0.0,-999.0,98,-99.99,,,0.00,Acu-Link.com,2013-10-06 09:30:00,
2013-10-06 05:45:00,61.7,61.1,29.78,East,90,0.0,-999.0,98,-99.99,,,0.00,Acu-Link.com,2013-10-06 09:45:00,
2013-10-06 06:00:00,61.5,60.9,29.78,South,180,0.0,-999.0,98,-99.99,,,0.00,Acu-Link.com,2013-10-06 10:00:00,
2013-10-06 06:16:00,59.9,59.3,29.79,SSE,157,0.0,-999.0,98,-99.99,,,0.00,Acu-Link.com,2013-10-06 10:16:00,
2013-10-06 06:31:00,59.9,59.3,29.79,South,180,0.0,-999.0,98,-99.99,,,0.00,Acu-Link.com,2013-10-06 10:31:00,
2013-10-06 06:46:00,59.9,59.3,29.80,South,180,0.0,-999.0,98,-99.99,,,0.00,Acu-Link.com,2013-10-06 10:46:00,
2013-10-06 07:02:00,59.7,59.1,29.80,SW,225,0.0,-999.0,98,-99.99,,,0.00,Acu-Link.com,2013-10-06 11:02:00,
2013-10-06 07:17:00,60.1,59.5,29.79,SW,225,0.0,-999.0,98,-99.99,,,0.00,Acu-Link.com,2013-10-06 11:17:00,
2013-10-06 07:32:00,60.1,59.5,29.80,SSE,157,0.0,-999.0,98,-99.99,,,0.00,Acu-Link.com,2013-10-06 11:32:00,
2013-10-06 07:47:00,60.4,59.8,29.80,SW,225,0.0,-999.0,98,-99.99,,,0.00,Acu-Link.com,2013-10-06 11:47:00,
2013-10-06 08:03:00,60.8,60.2,29.80,SSW,202,0.0,-999.0,98,-99.99,,,0.00,Acu-Link.com,2013-10-06 12:03:00,
2013-10-06 08:18:00,61.2,60.6,29.81,ENE,67,0.0,-999.0,98,-99.99,,,0.00,Acu-Link.com,2013-10-06 12:18:00,
2013-10-06 08:33:00,61.9,61.3,29.81,NNE,22,0.0,-999.0,98,-99.99,,,0.00,Acu-Link.com,2013-10-06 12:33:00,
2013-10-06 08:48:00,62.6,62.0,29.81,ESE,112,0.0,-999.0,98,-99.99,,,0.00,Acu-Link.com,2013-10-06 12:48:00,
2013-10-06 09:04:00,63.1,62.5,29.81,NNW,337,0.0,-999.0,98,-99.99,,,0.00,Acu-Link.com,2013-10-06 13:04:00,
2013-10-06 09:19:00,63.9,63.3,29.81,North,0,2.2,-999.0,98,-99.99,,,0.00,Acu-Link.com,2013-10-06 13:19:00,
2013-10-06 09:34:00,65.5,64.9,29.82,North,0,0.0,-999.0,98,-99.99,,,0.00,Acu-Link.com,2013-10-06 13:34:00,
2013-10-06 09:50:00,67.1,66.5,29.82,SE,135,2.7,-999.0,98,-99.99,,,0.00,Acu-Link.com,2013-10-06 13:50:00,
2013-10-06 10:05:00,68.7,68.1,29.81,NNE,22,1.7,-999.0,98,-99.99,,,0.00,Acu-Link.com,2013-10-06 14:05:00,
2013-10-06 10:20:00,70.9,70.3,29.81,West,270,1.1,-999.0,98,-99.99,,,0.00,Acu-Link.com,2013-10-06 14:20:00,
2013-10-06 10:35:00,74.1,73.5,29.81,North,0,0.0,-999.0,98,-99.99,,,0.00,Acu-Link.com,2013-10-06 14:35:00,
2013-10-06 10:51:00,78.4,77.8,29.82,SSE,157,0.0,-999.0,98,-99.99,,,0.00,Acu-Link.com,2013-10-06 14:51:00,
2013-10-06 11:06:00,81.7,81.1,29.80,East,90,2.2,-999.0,98,-99.99,,,0.00,Acu-Link.com,2013-10-06 15:06:00,
2013-10-06 11:21:00,83.3,82.7,29.81,NE,45,2.2,-999.0,98,-99.99,,,0.00,Acu-Link.com,2013-10-06 15:21:00,
2013-10-06 11:36:00,83.7,83.1,29.80,SSW,202,1.7,-999.0,98,-99.99,,,0.00,Acu-Link.com,2013-10-06 15:36:00,
2013-10-06 11:52:00,87.6,87.0,29.79,SE,135,2.2,-999.0,98,-99.99,,,0.00,Acu-Link.com,2013-10-06 15:52:00,
2013-10-06 12:07:00,86.7,86.1,29.79,NNW,337,0.0,-999.0,98,-99.99,,,0.00,Acu-Link.com,2013-10-06 16:07:00,
2013-10-06 12:22:00,79.0,78.4,29.78,East,90,4.7,-999.0,98,-99.99,,,0.00,Acu-Link.com,2013-10-06 16:22:00,
2013-10-06 12:37:00,79.5,78.9,29.78,NNE,22,1.7,-999.0,98,-99.99,,,0.00,Acu-Link.com,2013-10-06 16:37:00,
2013-10-06 12:52:00,81.7,81.1,29.76,NNE,22,2.7,-999.0,98,-99.99,,,0.00,Acu-Link.com,2013-10-06 16:52:00,
2013-10-06 13:08:00,80.6,80.0,29.75,NE,45,2.2,-999.0,98,-99.99,,,0.00,Acu-Link.com,2013-10-06 17:08:00,
2013-10-06 13:23:00,82.0,81.4,29.74,North,0,1.7,-999.0,98,-99.99,,,0.00,Acu-Link.com,2013-10-06 17:23:00,
2013-10-06 13:38:00,83.1,82.5,29.74,West,270,3.2,-999.0,98,-99.99,,,0.00,Acu-Link.com,2013-10-06 17:38:00,
2013-10-06 13:53:00,83.1,82.5,29.73,South,180,2.7,-999.0,98,-99.99,,,0.00,Acu-Link.com,2013-10-06 17:53:00,
2013-10-06 14:09:00,83.1,82.5,29.72,SSW,202,1.7,-999.0,98,-99.99,,,0.00,Acu-Link.com,2013-10-06 18:09:00,
2013-10-06 14:24:00,82.9,82.3,29.71,North,0,2.7,-999.0,98,-99.99,,,0.00,Acu-Link.com,2013-10-06 18:24:00,
2013-10-06 14:39:00,81.0,80.4,29.72,NE,45,2.2,-999.0,98,-99.99,,,0.00,Acu-Link.com,2013-10-06 18:39:00,
2013-10-06 14:55:00,82.6,82.0,29.71,ESE,112,2.2,-999.0,98,-99.99,,,0.00,Acu-Link.com,2013-10-06 18:55:00,
2013-10-06 15:10:00,81.3,80.7,29.69,NE,45,5.8,-999.0,98,-99.99,,,0.00,Acu-Link.com,2013-10-06 19:10:00,
2013-10-06 15:25:00,82.9,82.3,29.70,North,0,2.7,-999.0,98,-99.99,,,0.00,Acu-Link.com,2013-10-06 19:25:00,
2013-10-06 15:41:00,81.7,81.1,29.69,ENE,67,1.1,-999.0,98,-99.99,,,0.00,Acu-Link.com,2013-10-06 19:41:00,
2013-10-06 15:56:00,82.6,82.0,29.68,SSE,157,5.3,-999.0,98,-99.99,,,0.00,Acu-Link.com,2013-10-06 19:56:00,
2013-10-06 16:11:00,82.2,81.6,29.68,ENE,67,1.1,-999.0,98,-99.99,,,0.00,Acu-Link.com,2013-10-06 20:11:00,
2013-10-06 16:26:00,82.4,81.8,29.67,ESE,112,1.7,-999.0,98,-99.99,,,0.00,Acu-Link.com,2013-10-06 20:26:00,
2013-10-06 16:41:00,81.7,81.1,29.67,South,180,2.2,-999.0,98,-99.99,,,0.00,Acu-Link.com,2013-10-06 20:41:00,
2013-10-06 16:56:00,81.3,80.7,29.67,ENE,67,1.7,-999.0,98,-99.99,,,0.00,Acu-Link.com,2013-10-06 20:56:00,
2013-10-06 17:12:00,80.6,80.0,29.67,NE,45,2.2,-999.0,98,-99.99,,,0.00,Acu-Link.com,2013-10-06 21:12:00,
2013-10-06 17:27:00,79.2,78.6,29.66,West,270,2.2,-999.0,98,-99.99,,,0.00,Acu-Link.com,2013-10-06 21:27:00,
2013-10-06 17:42:00,78.3,77.7,29.66,North,0,0.0,-999.0,98,-99.99,,,0.00,Acu-Link.com,2013-10-06 21:42:00,
2013-10-06 17:57:00,77.0,76.4,29.66,SSW,202,0.0,-999.0,98,-99.99,,,0.00,Acu-Link.com,2013-10-06 21:57:00,
2013-10-06 18:13:00,76.1,75.5,29.66,ESE,112,0.0,-999.0,98,-99.99,,,0.00,Acu-Link.com,2013-10-06 22:13:00,
2013-10-06 18:28:00,75.4,74.8,29.66,SW,225,0.0,-999.0,98,-99.99,,,0.00,Acu-Link.com,2013-10-06 22:28:00,
2013-10-06 18:43:00,75.4,74.8,29.66,ESE,112,0.0,-999.0,98,-99.99,,,0.00,Acu-Link.com,2013-10-06 22:43:00,
2013-10-06 18:59:00,74.1,73.5,29.66,NNE,22,0.0,-999.0,98,-99.99,,,0.00,Acu-Link.com,2013-10-06 22:59:00,
2013-10-06 19:14:00,72.7,72.1,29.66,West,270,0.0,-999.0,98,-99.99,,,0.00,Acu-Link.com,2013-10-06 23:14:00,
2013-10-06 19:29:00,71.6,71.0,29.67,NNW,337,0.0,-999.0,98,-99.99,,,0.00,Acu-Link.com,2013-10-06 23:29:00,
2013-10-06 19:44:00,70.9,70.3,29.68,SSE,157,0.0,-999.0,98,-99.99,,,0.00,Acu-Link.com,2013-10-06 23:44:00,
2013-10-06 19:59:00,70.5,69.9,29.67,SSW,202,0.0,-999.0,98,-99.99,,,0.00,Acu-Link.com,2013-10-06 23:59:00,
2013-10-06 20:15:00,69.8,69.2,29.67,ESE,112,0.0,-999.0,98,-99.99,,,0.00,Acu-Link.com,2013-10-07 00:15:00,
2013-10-06 20:30:00,69.3,68.7,29.67,East,90,0.0,-999.0,98,-99.99,,,0.00,Acu-Link.com,2013-10-07 00:30:00,
2013-10-06 20:45:00,69.1,68.5,29.67,NNE,22,0.0,-999.0,98,-99.99,,,0.00,Acu-Link.com,2013-10-07 00:45:00,
2013-10-06 21:00:00,69.1,68.5,29.66,WSW,247,0.0,-999.0,98,-99.99,,,0.00,Acu-Link.com,2013-10-07 01:00:00,
2013-10-06 21:16:00,69.1,68.5,29.66,South,180,0.0,-999.0,98,-99.99,,,0.00,Acu-Link.com,2013-10-07 01:16:00,
2013-10-06 21:31:00,69.1,68.5,29.66,NE,45,0.0,-999.0,98,-99.99,,,0.00,Acu-Link.com,2013-10-07 01:31:00,
2013-10-06 21:46:00,69.1,68.5,29.66,NNW,337,0.0,-999.0,98,-99.99,,,0.00,Acu-Link.com,2013-10-07 01:46:00,
2013-10-06 22:01:00,68.7,68.1,29.67,West,270,0.0,-999.0,98,-99.99,,,0.00,Acu-Link.com,2013-10-07 02:01:00,
2013-10-06 22:17:00,68.7,68.1,29.66,ENE,67,0.0,-999.0,98,-99.99,,,0.00,Acu-Link.com,2013-10-07 02:17:00,
2013-10-06 22:32:00,68.0,67.4,29.66,NNE,22,0.0,-999.0,98,-99.99,,,0.00,Acu-Link.com,2013-10-07 02:32:00,
2013-10-06 22:47:00,67.6,67.0,29.66,West,270,0.0,-999.0,98,-99.99,,,0.00,Acu-Link.com,2013-10-07 02:47:00,
2013-10-06 23:02:00,67.3,66.7,29.66,West,270,0.0,-999.0,98,-99.99,,,0.00,Acu-Link.com,2013-10-07 03:02:00,
2013-10-06 23:18:00,67.1,66.5,29.65,West,270,0.0,-999.0,98,-99.99,,,0.00,Acu-Link.com,2013-10-07 03:18:00,
2013-10-06 23:33:00,67.1,66.5,29.66,NNE,22,0.0,-999.0,98,-99.99,,,0.00,Acu-Link.com,2013-10-07 03:33:00,
2013-10-06 23:48:00,66.9,66.3,29.65,WNW,292,0.0,-999.0,98,-99.99,,,0.00,Acu-Link.com,2013-10-07 03:48:00,